Coldstream, Australia

6:05 AM AEST on July 24, 2017 (GMT +1000)
Coldstream

Weather History for YMEN - October, 2013

Change the Weather History Date:

Thursday, October 31, 2013

  Actual Average Record
Temperature  
Mean Temperature 56 °F -  
Max Temperature 63 °F - - ()
Min Temperature 49 °F - - ()
Degree Days  
Heating Degree Days 9    
Growing Degree Days 6 (Base 50)    
Moisture  
Dew Point 48 °F    
Average Humidity 77    
Maximum Humidity 94    
Minimum Humidity 45    
Precipitation  
Precipitation 0.00 in - - ()
Sea Level Pressure  
Sea Level Pressure 30.22 in    
Wind  
Wind Speed 9 mph ()    
Max Wind Speed 16 mph    
Max Gust Speed -    
Visibility 6.2 miles    
Events Rain    
T = Trace of Precipitation, MM = Missing Value Source: Averaged Metar Reports

Daily Weather History Graph

Daily Weather History Graph

Search for Another Location

Airport or City:

Trip Planner

Search our weather history database for the weather conditions in past years. The results will help you decide how hot, cold, wet, or windy it might be!

Date:

Astronomy

Oct. 31, 2013 Rise Set
Actual Time 6:13 AM AEDT 7:51 PM AEDT
Civil Twilight 5:45 AM AEDT 8:19 PM AEDT
Nautical Twilight 5:11 AM AEDT 8:53 PM AEDT
Astronomical Twilight 4:35 AM AEDT 9:29 PM AEDT
Moon 3:59 AM AEDT (10/31) 4:24 PM AEDT (10/31)
Length of Visible Light 14h 34m
Length of Day
13h 38m
Waning Crescent, 14% of the Moon is Illuminated
Oct 31
Waning Crescent
Nov 3
New
Nov 10
First Quarter
Nov 18
Full
Nov 26
Last Quarter

Hourly Weather History & Observations

Time (AEDT) Temp. Dew Point Humidity Pressure Visibility Wind Dir Wind Speed Gust Speed Precip Events Conditions
12:00 AM 54 °F 49 °F 79% 30.22 in - SSE 4.6 mph - -  
12:00 AM 55.4 °F 50.0 °F 82% 30.21 in 6.2 mi South 10.4 mph - N/A   Overcast
12:30 AM 55.4 °F 50.0 °F 82% 30.21 in 6.2 mi South 13.8 mph - N/A   Overcast
1:00 AM 53.6 °F 50.0 °F 88% 30.21 in 6.2 mi South 12.7 mph - N/A   Overcast
1:30 AM 53.6 °F 50.0 °F 88% 30.21 in 6.2 mi SW 12.7 mph - N/A Rain Light Rain
2:00 AM 51.8 °F 50.0 °F 94% 30.21 in 6.2 mi SW 9.2 mph - N/A   Overcast
2:06 AM 51.8 °F 50.0 °F 94% 30.18 in 6.2 mi SW 9.2 mph - N/A   Overcast
3:00 AM 51 °F 47 °F 83% 30.19 in - South 5.8 mph - -  
3:00 AM 51.8 °F 50.0 °F 94% 30.18 in 6.2 mi SW 8.1 mph - N/A   Overcast
4:00 AM 51.8 °F 48.2 °F 88% 30.18 in 6.2 mi WSW 9.2 mph - N/A   Overcast
5:00 AM 50.0 °F 48.2 °F 94% 30.18 in 6.2 mi SW 8.1 mph - N/A   Overcast
6:00 AM 50 °F 48 °F 90% 30.20 in - SSE 3.5 mph - -  
6:03 AM 51.8 °F 48.2 °F 88% 30.18 in 6.2 mi SSW 11.5 mph - N/A Rain Light Rain Showers
6:19 AM 50.0 °F 48.2 °F 94% 30.21 in 6.2 mi SW 9.2 mph - N/A   Overcast
7:00 AM 51.8 °F 50.0 °F 94% 30.21 in 6.2 mi SW 8.1 mph - N/A   Overcast
7:22 AM 51.8 °F 50.0 °F 94% 30.21 in 6.2 mi SW 10.4 mph - N/A   Overcast
7:30 AM 51.8 °F 50.0 °F 94% 30.21 in 6.2 mi SW 10.4 mph - N/A   Overcast
8:00 AM 51.8 °F 50.0 °F 94% 30.24 in 6.2 mi SW 6.9 mph - N/A   Overcast
8:03 AM 51.8 °F 50.0 °F 94% 30.24 in 6.2 mi SW 8.1 mph - N/A   Overcast
9:00 AM 55 °F 48 °F 70% 30.26 in - SSE 5.8 mph - -  
9:00 AM 53.6 °F 50.0 °F 88% 30.24 in 6.2 mi SW 10.4 mph - N/A   Overcast
10:00 AM 55.4 °F 48.2 °F 77% 30.24 in 6.2 mi South 12.7 mph - N/A   Overcast
11:00 AM 55.4 °F 44.6 °F 67% 30.27 in 6.2 mi South 10.4 mph - N/A   Overcast
12:00 PM 58 °F 46 °F 54% 30.25 in - SSE 9.2 mph - -  
12:00 PM 59.0 °F 46.4 °F 63% 30.24 in 6.2 mi South 10.4 mph - N/A   Overcast
1:00 PM 59.0 °F 44.6 °F 59% 30.24 in 6.2 mi SSW 12.7 mph - N/A   Unknown
2:00 PM 60.8 °F 44.6 °F 55% 30.21 in 6.2 mi South 8.1 mph - N/A   Unknown
3:00 PM 63 °F 49 °F 51% 30.22 in - SE 12.7 mph - -  
3:00 PM 60.8 °F 48.2 °F 63% 30.21 in 6.2 mi South 16.1 mph - N/A   Scattered Clouds
4:00 PM 60.8 °F 46.4 °F 59% 30.21 in 6.2 mi SSW 13.8 mph - N/A   Unknown
5:00 PM 60.8 °F 44.6 °F 55% 30.21 in 6.2 mi South 13.8 mph - N/A   Unknown
6:00 PM 63 °F 47 °F 45% 30.20 in - South 9.2 mph - -  
6:00 PM 60.8 °F 46.4 °F 59% 30.21 in 6.2 mi South 13.8 mph - N/A   Unknown
7:00 PM 57.2 °F 46.4 °F 67% 30.21 in 6.2 mi South 13.8 mph - N/A   Unknown
8:00 PM 55.4 °F 44.6 °F 67% 30.24 in 6.2 mi South 9.2 mph - N/A   Unknown
9:00 PM 52 °F 45 °F 68% 30.25 in - SSW 3.5 mph - -  
9:00 PM 53.6 °F 46.4 °F 77% 30.24 in 6.2 mi South 10.4 mph - N/A   Unknown
10:00 PM 53.6 °F 46.4 °F 77% 30.24 in 6.2 mi South 8.1 mph - N/A   Unknown
11:00 PM 53.6 °F 46.4 °F 77% 30.27 in 6.2 mi SSE 8.1 mph - N/A   Scattered Clouds